TimeCDT,TemperatureF,Dew PointF,Humidity,Sea Level PressureIn,VisibilityMPH,Wind Direction,Wind SpeedMPH,Gust SpeedMPH,PrecipitationIn,Events,Conditions,WindDirDegrees,DateUTC
12:11 AM,62.6,60.8,94,30.07,7.0,North,31.1,41.4,0.06,Rain-Thunderstorm,Light Thunderstorms and Rain,360,2013-06-16 05:11:00
12:54 AM,64.0,59.0,84,29.94,10.0,NE,27.6,36.8,0.12,Rain-Thunderstorm,Light Thunderstorms and Rain,50,2013-06-16 05:54:00
1:39 AM,64.4,60.8,88,29.95,10.0,ENE,31.1,41.4,0.01,,Scattered Clouds,70,2013-06-16 06:39:00
1:54 AM,64.9,59.0,81,29.85,10.0,East,23.0,38.0,0.01,,Clear,80,2013-06-16 06:54:00
2:54 AM,64.9,57.0,75,29.94,10.0,East,15.0,-,N/A,,Partly Cloudy,100,2013-06-16 07:54:00
3:54 AM,64.0,55.9,75,29.94,10.0,East,11.5,-,N/A,,Scattered Clouds,90,2013-06-16 08:54:00
4:54 AM,63.0,55.9,78,29.92,10.0,SE,15.0,-,N/A,,Clear,140,2013-06-16 09:54:00
5:54 AM,63.0,57.9,84,29.93,10.0,SSE,8.1,-,N/A,,Clear,150,2013-06-16 10:54:00
6:54 AM,62.1,59.0,90,29.91,10.0,SSE,8.1,-,N/A,,Clear,150,2013-06-16 11:54:00
7:54 AM,64.0,60.1,87,29.91,10.0,WSW,8.1,-,N/A,,Clear,250,2013-06-16 12:54:00
8:54 AM,68.0,59.0,73,29.92,10.0,West,17.3,-,N/A,,Clear,260,2013-06-16 13:54:00
9:54 AM,69.1,59.0,70,29.94,10.0,West,11.5,-,N/A,,Clear,280,2013-06-16 14:54:00
10:54 AM,75.9,61.0,60,29.95,10.0,West,12.7,-,N/A,,Clear,280,2013-06-16 15:54:00
11:54 AM,79.0,59.0,50,29.97,10.0,West,12.7,18.4,N/A,,Clear,270,2013-06-16 16:54:00
12:54 PM,81.0,60.1,49,29.96,10.0,WSW,10.4,-,N/A,,Clear,240,2013-06-16 17:54:00
1:54 PM,84.0,59.0,43,29.94,10.0,West,11.5,16.1,N/A,,Clear,270,2013-06-16 18:54:00
2:54 PM,86.0,57.9,38,29.92,10.0,Variable,5.8,-,N/A,,Clear,0,2013-06-16 19:54:00
3:54 PM,88.0,55.9,34,29.89,10.0,SW,6.9,-,N/A,,Clear,230,2013-06-16 20:54:00
4:54 PM,89.1,55.9,32,29.85,10.0,SSW,4.6,-,N/A,,Clear,210,2013-06-16 21:54:00
5:54 PM,90.0,55.9,31,29.83,10.0,SE,9.2,-,N/A,,Scattered Clouds,130,2013-06-16 22:54:00
6:54 PM,87.1,60.1,40,29.81,10.0,SE,15.0,-,N/A,,Clear,140,2013-06-16 23:54:00
7:54 PM,82.9,61.0,47,29.82,10.0,SSE,11.5,-,N/A,,Clear,150,2013-06-17 00:54:00
8:50 PM,80.6,62.6,54,29.98,10.0,WSW,31.1,50.6,N/A,Thunderstorm,Squalls,240,2013-06-17 01:50:00
8:54 PM,73.9,55.9,53,29.91,9.0,West,31.1,50.6,N/A,Thunderstorm,Unknown,280,2013-06-17 01:54:00
9:00 PM,64.4,57.2,77,30.00,1.2,WNW,44.9,61.0,0.15,Rain-Thunderstorm,Thunderstorms and Rain,300,2013-06-17 02:00:00
9:03 PM,62.6,59.0,88,29.99,0.5,WNW,51.8,70.2,0.23,Fog-Rain-Thunderstorm,Heavy Thunderstorms and Rain,300,2013-06-17 02:03:00
9:17 PM,64.4,62.6,94,30.01,2.0,NW,27.6,47.2,0.39,Rain-Thunderstorm,Heavy Thunderstorms and Rain,320,2013-06-17 02:17:00
9:26 PM,64.4,62.6,94,30.02,4.0,NW,36.8,47.2,0.42,Rain-Thunderstorm,Thunderstorms and Rain,320,2013-06-17 02:26:00
9:54 PM,64.0,60.1,87,30.00,4.0,North,28.8,41.4,0.53,Rain-Thunderstorm,Heavy Rain,350,2013-06-17 02:54:00
10:07 PM,62.6,60.8,94,30.04,3.0,NNE,35.7,50.6,0.06,Rain,Heavy Rain,20,2013-06-17 03:07:00
10:54 PM,66.0,59.0,78,29.96,10.0,North,18.4,32.2,0.07,,Partly Cloudy,350,2013-06-17 03:54:00
11:01 PM,66.2,57.2,73,30.04,10.0,NNE,23.0,26.5,N/A,,Clear,20,2013-06-17 04:01:00
11:17 PM,66.2,59.0,78,30.01,10.0,NE,18.4,-,N/A,,Clear,50,2013-06-17 04:17:00
11:54 PM,64.9,60.1,84,29.91,10.0,ENE,10.4,-,N/A,,Clear,60,2013-06-17 04:54:00